This is the latest recevied weather packets stored in our database for station/object W1ERB-13. If no packets are shown the sender has not sent any weather packets the latest 10 day(s).
| Time | Temp. | Humidity | Pressure | Rain* | Wind** | Luminosity | Snow |
|---|---|---|---|---|---|---|---|
| 1777502893 | 14.44° C | 63% | 1010.6 hPa | 0 mm | - | 62 W/m² | - |
| 1777502591 | 15° C | 63% | 1010.6 hPa | 0 mm | - | 70 W/m² | - |
| 1777502287 | 15° C | 63% | 1010.8 hPa | 0 mm | - | 74 W/m² | - |
| 1777501984 | 15° C | 63% | 1010.9 hPa | 0 mm | - | 74 W/m² | - |
| 1777501681 | 14.44° C | 63% | 1010.8 hPa | 0 mm | - | 71 W/m² | - |
| 1777501378 | 15° C | 62% | 1010.8 hPa | 0 mm | - | 72 W/m² | - |
| 1777501075 | 15° C | 64% | 1010.9 hPa | 0 mm | - | 78 W/m² | - |
| 1777500773 | 15° C | 62% | 1011 hPa | 0 mm | - | 81 W/m² | - |
| 1777500470 | 15° C | 62% | 1010.9 hPa | 0 mm | - | 84 W/m² | - |
| 1777500165 | 15° C | 62% | 1010.9 hPa | 0 mm | - | 86 W/m² | - |
| 1777499863 | 15° C | 62% | 1011.1 hPa | 0 mm | - | 91 W/m² | - |
| 1777499558 | 15° C | 62% | 1011.4 hPa | 0 mm | - | 97 W/m² | - |
| 1777499257 | 15° C | 62% | 1011.6 hPa | 0 mm | - | 109 W/m² | - |
| 1777498953 | 15.56° C | 60% | 1011.4 hPa | 0 mm | - | 116 W/m² | - |
| 1777498650 | 15.56° C | 59% | 1011.5 hPa | 0 mm | - | 127 W/m² | - |
| 1777498346 | 15.56° C | 60% | 1011.2 hPa | 0 mm | - | 151 W/m² | - |
| 1777498044 | 15.56° C | 60% | 1011.2 hPa | 0 mm | - | 165 W/m² | - |
| 1777497741 | 15.56° C | 60% | 1011.3 hPa | 0 mm | - | 163 W/m² | - |
| 1777497438 | 15.56° C | 60% | 1010.9 hPa | 0 mm | - | 167 W/m² | - |
| 1777497133 | 15.56° C | 61% | 1011 hPa | 0 mm | - | 171 W/m² | - |
| 1777496830 | 15.56° C | 60% | 1011.4 hPa | 0 mm | - | 160 W/m² | - |
| 1777496527 | 15.56° C | 60% | 1011.6 hPa | 0 mm | - | 161 W/m² | - |
| 1777496223 | 15.56° C | 59% | 1011.6 hPa | 0 mm | - | 177 W/m² | - |
| 1777495919 | 15.56° C | 59% | 1011.5 hPa | 0 mm | - | 171 W/m² | - |
| 1777495616 | 15.56° C | 58% | 1011.6 hPa | 0 mm | - | 197 W/m² | - |
* Rain latest hour (hover to see other rain measurements)
** Current wind speed in m/s (hover to see current wind gust speed)